KP3G Juncos PR US current weather conditions

sailwx.info

Wind from 135 at 6 knots gusting 10

Air temperature 31.7° C
Dewpoint 25.5° C

Last reported at 2020-Aug-05 18:45 UTC.
Time now 2020-Aug-07 00:25 UTC

Location: N 18°12' W 065°55'.
View on Google Maps.

See reports from other nearby stations

  
Tides and Currents Weather Stations Pressure Air Temp Water Temp Dewpoint Dewpoint Depression Visibility Wind Speed Wind Dir Waves Ship Positions
date/time (UTC)wind fromknots sea level pressurealtimeterstation pressurevisibilityair tempwater tempwave heightnotes
2020-Aug-05 18:45 135 6 gusting 10 31.7
2020-Aug-05 18:40 129 5 gusting 10 31.7
2020-Aug-05 18:35 142 2 gusting 11 31.7
2020-Aug-05 18:30 110 6 gusting 12 31.7
2020-Aug-05 18:25 107 4 gusting 10 31.7
2020-Aug-05 18:20 111 6 gusting 10 31.7
2020-Aug-05 18:15 112 4 gusting 10 31.7
2020-Aug-05 18:10 106 4 gusting 12 31.7
2020-Aug-05 18:05 124 4 gusting 7 31.1
2020-Aug-05 18:00 102 6 gusting 13 31.1
2020-Aug-05 17:50 120 6 gusting 13 31.1
2020-Aug-05 17:45 092 3 gusting 8 31.1
2020-Aug-05 17:40 126 5 gusting 10 31.1
2020-Aug-05 17:35 111 5 gusting 10 31.1
2020-Aug-05 17:30 111 5 gusting 10 31.1
2020-Aug-05 17:25 115 2 gusting 10 31.7
2020-Aug-05 17:20 101 6 gusting 8 31.7
2020-Aug-05 17:15 113 6 gusting 12 31.1
2020-Aug-05 17:10 133 6 gusting 10 31.7
2020-Aug-05 17:05 120 6 gusting 10 31.7
2020-Aug-05 17:00 113 6 gusting 11 31.7
2020-Aug-05 16:55 095 5 gusting 10 31.7
2020-Aug-05 16:50 105 6 gusting 10 31.7
2020-Aug-05 16:45 105 6 gusting 10 31.7
2020-Aug-05 16:40 111 7 gusting 13 31.7
2020-Aug-05 16:35 071 6 gusting 11 31.1
2020-Aug-05 16:30 126 5 gusting 11 31.1
2020-Aug-05 16:25 119 6 gusting 10 31.1
2020-Aug-05 16:20 110 4 gusting 11 31.1
2020-Aug-05 16:15 132 6 gusting 13 31.1
2020-Aug-05 16:10 121 6 gusting 10 31.7
2020-Aug-05 16:05 108 6 gusting 12 31.7
2020-Aug-05 16:00 138 5 gusting 10 31.7
2020-Aug-05 15:55 097 5 gusting 12 31.1
2020-Aug-05 15:50 112 5 gusting 12 31.1
2020-Aug-05 15:45 104 7 gusting 12 30.6
2020-Aug-05 15:40 105 7 gusting 12 31.1
2020-Aug-05 15:35 096 6 gusting 11 31.1
2020-Aug-05 15:25 112 6 gusting 10 30.6
2020-Aug-05 15:20 099 6 gusting 8 30.6
2020-Aug-05 15:15 130 6 gusting 13 30.6
2020-Aug-05 15:10 122 6 gusting 11 30.6
2020-Aug-05 15:05 136 8 gusting 12 30.6
2020-Aug-05 15:00 108 7 gusting 10 30.6
2020-Aug-05 14:55 103 4 gusting 10 30.6
2020-Aug-05 14:50 119 6 gusting 10 30.6
2020-Aug-05 14:45 099 5 gusting 6 30.0
2020-Aug-05 14:40 105 5 gusting 8 30.0
2020-Aug-05 14:35 079 3 gusting 6 30.0
2020-Aug-05 14:30 093 4 gusting 7 30.0
2020-Aug-05 14:25 107 2 gusting 11 30.0
2020-Aug-05 14:20 097 5 gusting 8 30.0
2020-Aug-05 14:15 084 4 gusting 7 30.0
2020-Aug-05 14:10 108 5 gusting 8 30.0
2020-Aug-05 14:05 098 5 gusting 7 30.0
2020-Aug-05 14:00 063 5 gusting 8 30.0
2020-Aug-05 13:55 111 6 gusting 10 30.0
2020-Aug-05 13:50 090 4 gusting 6 30.0
2020-Aug-05 13:45 097 5 gusting 8 30.0
2020-Aug-05 13:40 092 4 gusting 11 29.4
2020-Aug-05 13:35 101 5 gusting 10 29.4
2020-Aug-05 13:30 105 5 gusting 11 29.4
2020-Aug-05 13:25 103 5 gusting 10 29.4
2020-Aug-05 13:20 089 5 gusting 10 29.4
2020-Aug-05 13:15 102 4 gusting 8 29.4
2020-Aug-05 13:10 112 5 gusting 10 28.9
2020-Aug-05 13:05 108 6 gusting 11 28.9
2020-Aug-05 13:00 120 5 gusting 10 28.9
2020-Aug-05 12:55 109 6 gusting 10 28.9
2020-Aug-05 12:50 089 5 gusting 10 28.9
2020-Aug-05 12:45 082 5 gusting 11 28.3
2020-Aug-05 12:40 112 4 gusting 8 28.3
2020-Aug-05 12:35 114 6 gusting 8 28.3
2020-Aug-05 12:30 087 4 gusting 7 28.3
2020-Aug-05 12:25 101 5 gusting 8 28.3
2020-Aug-05 12:20 119 4 gusting 6 27.8
2020-Aug-05 12:15 113 2 gusting 5 27.8
2020-Aug-05 12:10 118 3 gusting 7 27.2
2020-Aug-05 12:05 095 3 gusting 5 27.2
2020-Aug-05 12:00 117 1 gusting 5 26.7
2020-Aug-05 11:55 285 26.1
2020-Aug-05 11:50 299 26.1
2020-Aug-05 11:45 302 25.6
2020-Aug-05 11:40 306 25.6
2020-Aug-05 11:35 306 25.6
2020-Aug-05 11:30 306 25.6
2020-Aug-05 11:25 306 25.0
2020-Aug-05 11:20 306 25.0
2020-Aug-05 11:15 306 24.4
2020-Aug-05 11:10 306 24.4
2020-Aug-05 11:05 306 24.4
2020-Aug-05 11:00 306 23.9
2020-Aug-05 10:55 322 23.9
2020-Aug-05 10:50 322 0 gusting 1 23.9
2020-Aug-05 10:45 319 1 gusting 2 23.9
2020-Aug-05 10:40 143 23.9
2020-Aug-05 10:35 053 23.9
2020-Aug-05 10:30 053 23.9
2020-Aug-05 10:25 046 0 gusting 2 23.9
2020-Aug-05 10:20 293 1 gusting 2 23.9
2020-Aug-05 10:15 024 0 gusting 1 23.9
2020-Aug-05 10:10 104 1 gusting 2 23.9
2020-Aug-05 10:05 254 0 gusting 2 23.9
2020-Aug-05 10:00 246 0 gusting 2 23.9
2020-Aug-05 09:55 246 1 gusting 2 23.9
2020-Aug-05 09:50 146 23.9
2020-Aug-05 09:45 094 23.3
2020-Aug-05 09:40 094 23.9
2020-Aug-05 09:35 094 23.9
2020-Aug-05 09:30 093 1 gusting 2 23.9
2020-Aug-05 09:25 325 1 gusting 2 23.9
2020-Aug-05 09:20 024 23.9
2020-Aug-05 09:15 024 23.9
2020-Aug-05 09:10 030 1 gusting 2 23.9
2020-Aug-05 09:05 069 1 gusting 2 23.9
2020-Aug-05 09:00 141 0 gusting 1 23.9
2020-Aug-05 08:55 141 23.9
2020-Aug-05 08:50 141 0 gusting 1 23.9
2020-Aug-05 08:45 141 0 gusting 2 23.9
2020-Aug-05 08:40 119 23.9
2020-Aug-05 08:35 109 23.9
2020-Aug-05 08:30 109 23.9
2020-Aug-05 08:25 109 23.9
2020-Aug-05 08:20 109 23.9
2020-Aug-05 08:15 109 23.9
2020-Aug-05 08:10 109 23.9
2020-Aug-05 08:05 109 23.9
2020-Aug-05 08:00 109 23.9
2020-Aug-05 07:55 109 24.4
2020-Aug-05 07:50 109 24.4
2020-Aug-05 07:45 109 24.4
2020-Aug-05 07:40 109 24.4
2020-Aug-05 07:35 111 24.4
2020-Aug-05 07:30 112 24.4
2020-Aug-05 07:25 112 24.4
2020-Aug-05 07:20 112 24.4
2020-Aug-05 07:15 059 24.4
2020-Aug-05 07:10 059 24.4
2020-Aug-05 07:05 059 24.4
2020-Aug-05 07:00 059 24.4
2020-Aug-05 06:55 059 24.4
2020-Aug-05 06:50 112 24.4
2020-Aug-05 06:45 112 0 gusting 2 24.4
2020-Aug-05 06:40 095 0 gusting 2 24.4
2020-Aug-05 06:35 036 24.4
2020-Aug-05 06:30 036 24.4
2020-Aug-05 06:25 036 24.4
2020-Aug-05 06:20 036 0 gusting 1 24.4
2020-Aug-05 06:15 036 24.4
2020-Aug-05 06:10 036 25.0
2020-Aug-05 06:05 036 25.0
2020-Aug-05 06:00 036 25.0
2020-Aug-05 05:55 036 25.0
2020-Aug-05 05:50 085 25.0
2020-Aug-05 05:45 135 25.0
2020-Aug-05 05:40 135 25.0
2020-Aug-05 05:35 135 25.0
2020-Aug-05 05:30 135 25.0
2020-Aug-05 05:25 135 25.0
2020-Aug-05 05:20 081 25.0
2020-Aug-05 05:15 081 25.0
2020-Aug-05 05:10 081 25.0
2020-Aug-05 05:05 081 25.6
2020-Aug-05 04:55 081 25.6
2020-Aug-05 04:50 081 25.6
2020-Aug-05 04:45 081 0 gusting 1 25.6
2020-Aug-05 04:40 081 0 gusting 1 25.6
2020-Aug-05 04:35 081 0 gusting 2 25.6
2020-Aug-05 04:30 081 0 gusting 2 25.6
2020-Aug-05 04:25 110 1 gusting 5 25.0
2020-Aug-05 04:20 111 0 gusting 2 25.0
2020-Aug-05 04:15 093 0 gusting 2 25.0
2020-Aug-05 04:10 093 25.0
2020-Aug-05 04:05 093 25.6
2020-Aug-05 04:00 093 25.6
2020-Aug-05 03:55 093 25.6
2020-Aug-05 03:50 093 25.6
2020-Aug-05 03:45 093 25.6
2020-Aug-05 03:40 093 25.6
2020-Aug-05 03:35 093 25.6
2020-Aug-05 03:30 093 25.6
2020-Aug-05 03:25 093 0 gusting 1 25.6
2020-Aug-05 03:20 093 25.6
2020-Aug-05 03:15 093 25.6
2020-Aug-05 03:10 093 25.6
2020-Aug-05 03:05 093 25.6
2020-Aug-05 03:00 093 25.6
2020-Aug-05 02:55 093 25.6
2020-Aug-05 02:50 093 25.6
2020-Aug-05 02:45 093 25.6
2020-Aug-05 02:40 093 25.6
2020-Aug-05 02:30 093 25.6
2020-Aug-05 02:25 093 25.6
2020-Aug-05 02:20 093 26.1
2020-Aug-05 02:15 093 26.1
2020-Aug-05 02:10 093 26.1
2020-Aug-05 02:05 093 26.1
2020-Aug-05 02:00 093 26.1
2020-Aug-05 01:55 093 26.1
2020-Aug-05 01:50 093 26.1
2020-Aug-05 01:45 093 26.1
2020-Aug-05 01:40 093 26.1
2020-Aug-05 01:35 093 0 gusting 1 26.1
2020-Aug-05 01:30 093 0 gusting 2 26.1
2020-Aug-05 01:25 093 26.1
2020-Aug-05 01:20 093 26.1
2020-Aug-05 01:15 093 26.7
2020-Aug-05 01:10 093 26.7
2020-Aug-05 01:05 093 26.7
2020-Aug-05 01:00 093 26.7
2020-Aug-05 00:55 093 26.7
2020-Aug-05 00:50 093 26.7
2020-Aug-05 00:45 093 27.2
2020-Aug-05 00:40 093 27.2
2020-Aug-05 00:35 093 27.2
2020-Aug-05 00:30 093 27.2
2020-Aug-05 00:25 093 27.2
2020-Aug-05 00:20 093 27.2
2020-Aug-05 00:15 093 0 gusting 1 27.2
2020-Aug-05 00:10 093 1 gusting 2 27.2
2020-Aug-05 00:05 107 1 gusting 2 27.2
2020-Aug-05 00:00 102 1 gusting 2 27.2